Wind_Speed
7 7 7 7 7 6 6 6 6 6 7 7 7 7 6 6 5 4 4 4 4 3 2 2 3 3 3 2 3 4 4 5 6 6 6 6 5 5 5 5 5 5 4 4 3 2 2 2 2
8 8 8 8 8 8 7 7 7 6 7 7 7 7 7 6 6 5 5 4 4 3 3 2 2 2 2 2 3 4 5 5 6 6 7 6 6 6 6 6 6 5 5 5 4 3 3 3 3
10 10 9 9 9 9 8 8 7 6 6 7 7 7 7 7 6 6 5 5 4 4 3 2 1 1 1 2 3 4 5 5 6 7 7 7 7 6 6 7 7 6 6 5 5 5 4 4 4
12 11 11 11 10 10 9 8 7 7 7 8 8 8 7 7 7 6 5 5 5 4 3 2 1 0 1 2 3 4 4 5 6 6 7 7 7 7 7 7 7 7 6 6 5 5 5 4 4
14 13 12 11 11 11 9 8 8 8 7 8 8 8 8 7 7 6 6 5 5 4 3 2 0 0 1 2 3 4 4 5 6 6 7 7 7 7 7 7 8 7 7 7 6 5 4 4 5
14 14 13 12 12 11 10 9 9 9 8 8 8 8 8 7 7 6 7 6 6 5 4 2 1 1 1 2 3 4 4 5 6 6 7 8 8 8 8 8 8 8 8 7 6 5 5 5 5
15 15 14 13 13 13 12 11 11 10 10 9 9 9 9 8 7 7 7 6 6 5 4 2 1 1 1 2 2 3 4 5 6 7 8 8 8 9 8 8 8 9 8 7 6 5 5 5 5
16 16 15 15 15 14 13 13 12 11 11 10 9 9 9 8 8 7 7 7 7 6 4 3 2 1 1 1 2 3 4 5 6 7 8 8 9 9 9 8 8 9 8 7 6 6 5 5 5
17 17 16 15 15 14 14 13 13 13 12 11 10 10 10 9 9 8 8 8 7 6 5 3 2 1 1 1 2 3 3 4 6 7 8 8 8 9 9 9 9 9 8 7 6 6 5 5 4
18 17 17 16 15 14 14 13 12 13 13 12 10 10 10 10 9 9 7 7 6 5 4 3 2 2 1 1 3 3 3 4 5 7 7 8 9 9 9 9 9 9 8 8 7 6 5 5 5
19 17 16 17 15 15 14 14 13 12 13 13 11 11 10 10 9 9 9 7 6 5 4 4 3 2 1 2 3 3 4 5 6 6 7 8 9 9 9 9 9 9 8 8 7 7 6 5 5
18 17 16 16 15 15 14 14 13 13 13 13 13 12 12 11 9 9 9 7 6 6 5 4 3 2 2 2 3 3 4 5 6 6 7 8 9 9 9 9 10 9 9 8 7 7 6 5 4
17 17 16 14 14 14 14 15 14 13 13 14 13 13 13 12 10 10 9 8 7 6 5 4 3 3 3 3 3 3 4 5 5 6 7 8 8 9 9 9 10 9 9 8 8 7 6 5 5
17 17 17 16 15 15 14 14 14 13 13 13 13 12 12 11 10 9 9 8 7 6 6 5 4 4 3 2 3 3 3 4 5 6 6 7 8 9 9 9 9 9 9 9 8 7 7 6 5
15 16 17 17 16 16 15 14 14 13 13 14 13 13 12 11 10 10 9 8 8 7 6 5 4 3 3 2 2 3 3 4 5 5 6 7 8 8 9 9 10 10 9 8 8 7 7 7 7
16 16 17 16 16 16 16 14 14 13 14 14 14 13 12 10 11 10 10 9 8 7 6 6 4 3 3 3 2 3 3 4 4 5 6 6 8 8 9 9 10 10 10 9 8 7 7 7 7
15 16 16 15 15 15 15 15 15 14 13 13 14 13 12 11 11 11 10 10 9 7 6 6 4 4 4 3 3 3 3 3 4 4 5 6 7 8 8 9 9 10 10 9 8 8 7 7 7
13 14 15 15 14 15 15 15 14 14 14 13 13 13 12 12 11 11 11 10 9 8 7 6 5 4 4 4 3 3 3 4 4 4 5 6 7 7 8 8 9 9 9 9 8 8 8 8 8
13 13 13 14 14 14 15 15 14 14 14 14 13 13 13 12 12 11 11 11 10 8 7 6 5 4 4 4 4 4 4 4 4 5 5 6 6 7 8 8 8 8 8 9 9 8 8 8 8
13 12 12 14 13 13 14 14 14 15 15 15 15 14 13 13 12 11 11 11 10 9 8 7 5 4 5 4 4 4 4 5 5 5 5 6 7 7 7 8 8 8 8 8 8 8 8 8 8
13 12 11 12 12 12 13 13 13 14 14 14 14 13 12 12 12 12 12 11 10 9 8 7 6 5 5 5 4 4 5 5 5 5 6 6 7 7 7 8 8 8 8 8 8 8 8 8 8
11 11 11 11 11 11 11 11 13 14 14 13 13 13 12 12 12 12 12 11 11 10 9 8 7 6 6 5 5 5 6 6 6 6 7 7 7 8 8 8 8 8 8 7 8 8 8 9 9
11 11 10 10 10 10 10 10 11 12 13 12 12 12 12 12 12 12 12 12 11 10 9 8 8 7 6 6 7 7 7 7 7 7 7 8 8 8 8 8 8 8 8 8 8 8 8 9 9
10 10 9 9 9 9 9 9 10 10 10 11 11 12 12 12 12 13 13 12 12 10 9 9 8 8 8 8 8 8 8 8 8 8 8 8 8 9 9 9 9 9 8 8 8 8 9 10 10
9 8 7 7 7 7 7 10 10 9 9 10 11 12 12 12 13 13 12 12 12 11 10 9 9 9 9 9 9 9 9 8 8 8 9 9 9 9 9 9 9 9 9 9 9 9 10 10 11
7 7 7 6 5 6 8 11 10 9 9 10 11 12 12 13 13 13 13 12 12 11 11 10 10 9 9 10 10 10 10 9 10 10 10 10 10 11 11 11 10 10 10 10 10 10 11 11 11
7 7 7 7 6 7 8 9 10 9 9 9 10 11 12 13 14 14 13 13 13 12 11 11 11 11 11 11 11 10 11 11 11 12 12 12 12 12 12 12 11 11 11 11 11 11 12 12 12
7 7 8 8 8 7 7 8 9 9 9 9 10 11 12 12 13 13 13 13 12 12 12 12 12 12 12 11 11 11 11 11 11 13 13 13 14 13 13 13 12 12 12 12 12 12 13 13 13
7 7 8 9 9 8 8 9 10 8 9 9 10 11 12 13 13 12 12 12 12 12 12 11 12 12 12 12 12 12 12 13 13 13 14 14 15 15 14 14 14 13 13 13 14 14 15 15 15
7 8 9 9 9 9 9 9 10 9 9 10 10 11 12 13 12 12 12 12 12 12 12 12 12 11 11 12 12 13 13 14 14 15 15 16 16 16 15 15 15 15 15 15 16 16 16 16 16
Wind_Direction
194 187 181 183 188 189 189 199 204 205 200 197 193 184 182 184 185 185 173 168 168 167 143 122 105 102 95 61 34 25 24 22 18 16 16 14 12 13 11 7 1 359 355 344 334 311 289 274 262
205 200 195 195 196 201 202 205 205 208 203 200 199 194 194 193 191 187 179 178 173 171 163 140 107 94 75 44 20 17 17 16 14 15 15 12 10 8 7 3 354 349 346 339 329 317 302 280 268
213 210 206 207 207 210 207 207 209 208 207 204 200 197 198 201 199 195 191 188 180 170 168 156 144 93 31 22 8 7 14 15 15 15 13 10 9 6 3 360 352 346 341 336 325 313 304 286 272
216 215 214 212 215 217 215 212 208 209 211 207 203 200 197 197 196 196 195 194 189 181 178 165 150 110 26 11 9 8 11 12 11 9 9 8 7 5 2 359 354 350 345 336 326 312 299 287 272
216 215 216 215 219 220 213 213 210 215 218 212 207 202 199 199 202 207 207 201 194 186 183 186 165 351 4 0 2 6 8 8 7 9 11 8 6 6 4 359 357 353 349 342 330 318 304 288 272
216 216 215 220 223 224 217 215 217 217 214 210 204 200 200 206 209 212 212 208 196 188 190 201 230 277 320 349 359 6 9 10 12 16 14 12 9 7 4 360 359 356 351 343 335 328 311 294 280
215 217 218 222 225 226 222 220 220 218 214 210 203 201 206 208 211 210 212 207 200 193 195 206 225 289 311 332 2 14 16 15 17 20 16 10 8 6 2 1 360 358 356 350 339 334 327 309 290
218 218 219 221 225 228 225 224 223 220 218 215 210 204 206 209 210 210 210 207 203 202 203 204 217 289 336 344 13 15 16 14 14 15 12 11 8 5 3 2 1 1 0 358 349 341 335 320 295
217 219 220 223 226 228 227 226 225 227 224 219 215 211 209 212 214 212 205 204 203 202 201 214 230 250 319 359 354 356 8 9 8 7 6 5 5 3 4 4 4 5 5 3 357 350 341 331 316
216 217 220 223 228 229 228 230 229 230 223 218 219 217 214 214 215 214 209 205 206 210 215 232 253 259 285 335 343 339 351 357 1 2 3 3 4 6 5 5 6 8 7 4 0 355 346 339 327
217 217 221 222 224 227 226 227 230 230 222 218 219 215 215 215 217 221 221 215 213 221 227 241 260 268 288 314 326 340 346 353 355 358 1 5 7 8 7 6 4 3 3 2 3 2 356 345 338
218 218 220 222 224 227 227 226 228 227 223 222 221 220 219 217 222 222 218 217 220 226 236 251 255 255 269 302 321 340 349 348 353 359 5 7 6 8 9 8 6 5 6 5 2 3 3 2 2
219 220 219 221 223 227 228 226 226 223 224 224 223 222 223 220 222 219 218 221 223 230 239 252 253 265 269 287 314 328 341 344 352 359 2 4 4 7 9 7 6 6 6 5 3 5 9 13 11
218 219 220 222 223 225 228 224 224 222 225 224 221 222 221 218 218 218 223 223 224 232 241 247 258 269 275 294 319 326 335 342 348 355 357 1 5 5 6 9 7 6 6 8 11 11 13 16 15
220 220 220 222 223 226 227 223 223 222 224 224 220 221 223 220 221 222 223 222 225 232 243 244 251 264 272 293 312 321 330 338 344 350 356 359 3 5 8 12 10 8 7 9 10 15 20 22 22
219 220 220 221 223 224 227 227 225 223 226 224 223 223 222 221 223 223 225 227 226 231 238 238 244 255 264 281 300 305 317 332 340 346 353 358 2 4 5 7 7 8 9 11 13 19 23 21 19
219 222 224 224 224 223 227 228 225 224 227 225 225 225 221 226 224 224 226 225 227 232 235 237 239 251 257 270 287 294 308 325 333 337 346 353 356 359 2 3 5 7 10 13 14 19 18 15 13
218 222 224 224 225 223 226 227 229 226 223 224 225 225 224 228 226 226 225 226 228 232 236 244 243 246 256 264 278 285 300 314 320 325 334 342 350 354 356 356 360 4 7 11 11 12 12 10 7
219 223 225 225 225 224 227 228 226 220 220 224 228 231 233 230 229 229 229 228 230 229 234 241 244 246 252 264 273 282 291 301 310 315 322 334 345 349 350 351 353 356 360 4 7 8 8 7 4
222 223 221 227 228 228 227 229 227 228 230 229 230 232 236 239 233 230 231 229 227 227 231 237 238 249 255 261 269 278 289 299 303 311 318 325 334 339 344 347 348 349 352 355 359 4 5 4 1
221 223 218 224 232 231 225 227 230 230 232 232 233 235 237 236 230 229 229 224 223 227 230 234 240 250 256 259 265 275 285 292 300 307 311 317 324 328 334 337 339 342 344 345 349 352 357 355 354
215 214 213 222 228 225 226 233 235 235 233 233 234 235 232 232 230 226 223 221 221 225 231 236 244 250 254 257 266 274 282 289 295 301 306 312 317 322 324 328 332 336 337 337 340 342 343 345 346
212 209 211 219 223 223 227 236 235 235 233 233 233 231 230 232 231 227 223 222 224 227 232 240 245 247 252 260 263 270 276 283 291 299 304 309 313 316 317 318 323 327 329 329 331 333 334 334 334
202 203 206 216 224 225 223 235 239 229 233 239 236 232 232 230 230 228 228 227 229 231 235 242 248 250 254 259 263 266 273 281 287 294 302 305 309 312 311 311 314 317 318 320 321 322 324 325 326
189 193 199 210 220 226 226 236 242 237 236 239 238 236 233 232 230 230 230 230 232 234 237 243 251 255 258 255 260 265 273 279 285 291 296 300 302 305 306 307 311 314 313 313 314 313 316 319 321
180 186 195 205 214 227 229 234 239 242 240 242 239 237 235 233 234 232 231 231 233 237 241 248 254 257 256 255 260 267 270 277 285 290 292 295 297 299 300 303 305 308 307 308 309 308 309 313 316
190 197 195 202 217 228 233 241 241 240 241 243 242 240 237 237 237 236 235 235 239 242 247 253 257 259 257 259 263 271 270 275 284 287 288 291 293 294 296 298 301 301 303 304 306 307 306 308 311
205 202 193 194 207 215 227 243 244 242 241 241 246 245 240 241 241 237 238 240 242 247 253 256 259 261 257 259 265 271 274 278 281 284 287 288 288 289 292 293 296 297 300 301 302 302 302 304 306
208 210 211 211 212 219 215 225 244 248 250 250 249 246 244 241 242 240 239 241 245 250 253 257 259 258 257 261 266 270 275 278 281 285 287 287 287 287 288 288 290 292 295 296 298 299 298 300 302
223 215 214 211 213 222 230 237 245 245 250 253 252 249 246 244 242 243 244 247 247 250 254 258 260 260 262 264 268 271 274 278 281 283 285 286 286 286 285 285 286 289 291 294 295 297 297 298 299
Height
5877 5879 5880 5882 5884 5884 5884 5885 5885 5886 5887 5888 5889 5890 5891 5892 5894 5897 5895 5894 5895 5896 5896 5896 5896 5897 5897 5897 5896 5896 5895 5895 5894 5893 5892 5892 5891 5890 5890 5889 5888 5887 5887 5886 5886 5886 5885 5885 5885
5877 5879 5881 5882 5882 5883 5884 5884 5885 5886 5887 5888 5889 5890 5891 5892 5893 5894 5894 5894 5895 5896 5896 5897 5897 5897 5897 5897 5897 5896 5896 5895 5894 5894 5893 5892 5891 5890 5889 5889 5888 5887 5886 5886 5885 5885 5885 5885 5885
5876 5878 5880 5881 5881 5882 5883 5884 5885 5885 5887 5888 5889 5890 5891 5892 5893 5893 5894 5895 5896 5896 5897 5897 5897 5897 5897 5897 5897 5897 5896 5895 5895 5894 5893 5892 5891 5890 5889 5889 5888 5887 5886 5885 5885 5884 5884 5884 5884
5875 5877 5879 5881 5880 5881 5882 5883 5884 5885 5886 5887 5889 5890 5890 5892 5893 5893 5894 5895 5896 5896 5897 5897 5897 5898 5898 5898 5897 5897 5896 5896 5895 5894 5893 5892 5891 5890 5889 5888 5887 5886 5885 5884 5884 5883 5883 5883 5883
5873 5876 5878 5878 5879 5880 5881 5882 5884 5885 5886 5887 5889 5889 5890 5892 5892 5893 5894 5895 5896 5897 5897 5897 5898 5898 5898 5898 5898 5897 5897 5896 5895 5894 5893 5892 5891 5890 5889 5888 5887 5886 5885 5883 5882 5882 5882 5881 5881
5872 5874 5876 5877 5878 5879 5880 5882 5883 5884 5885 5886 5888 5889 5890 5891 5892 5893 5894 5895 5896 5897 5897 5898 5898 5898 5898 5898 5898 5897 5897 5896 5895 5895 5894 5893 5891 5890 5889 5888 5886 5885 5884 5883 5882 5881 5880 5880 5880
5870 5872 5874 5875 5877 5878 5880 5881 5882 5883 5885 5886 5888 5889 5890 5891 5892 5893 5894 5895 5896 5897 5897 5898 5898 5898 5898 5898 5898 5898 5897 5897 5896 5895 5894 5893 5892 5890 5889 5888 5886 5885 5883 5882 5881 5880 5879 5879 5879
5867 5871 5872 5874 5875 5877 5878 5879 5881 5883 5884 5886 5887 5889 5890 5891 5892 5893 5894 5895 5896 5897 5897 5898 5898 5898 5898 5898 5898 5898 5897 5897 5896 5895 5894 5893 5892 5890 5889 5887 5886 5884 5883 5881 5880 5879 5878 5878 5878
5865 5869 5870 5871 5873 5875 5877 5878 5880 5881 5883 5885 5886 5888 5889 5890 5891 5892 5894 5895 5896 5897 5897 5898 5898 5898 5899 5899 5898 5898 5898 5897 5896 5895 5894 5893 5892 5890 5889 5887 5886 5884 5882 5881 5880 5879 5878 5877 5877
5863 5866 5868 5870 5872 5873 5875 5877 5879 5880 5882 5884 5886 5887 5888 5889 5891 5892 5893 5894 5895 5896 5897 5898 5898 5898 5899 5899 5899 5898 5898 5897 5896 5896 5895 5893 5892 5890 5889 5887 5885 5884 5882 5881 5879 5878 5877 5877 5876
5860 5863 5866 5868 5870 5872 5874 5876 5877 5879 5881 5883 5885 5886 5888 5889 5890 5892 5893 5894 5895 5896 5897 5897 5898 5898 5898 5899 5898 5898 5898 5897 5897 5896 5895 5893 5892 5890 5889 5887 5885 5884 5882 5881 5879 5878 5877 5876 5876
5859 5861 5863 5866 5868 5870 5872 5874 5876 5878 5880 5882 5883 5885 5887 5888 5890 5891 5892 5894 5895 5896 5897 5897 5897 5898 5898 5898 5898 5898 5897 5897 5896 5896 5895 5893 5892 5891 5889 5887 5886 5884 5882 5881 5879 5878 5877 5876 5875
5856 5859 5862 5864 5866 5869 5871 5873 5875 5876 5878 5880 5882 5884 5886 5887 5889 5890 5892 5893 5894 5895 5896 5897 5897 5897 5898 5898 5898 5898 5897 5897 5896 5895 5894 5893 5892 5891 5889 5888 5886 5884 5882 5881 5879 5878 5877 5876 5875
5854 5857 5860 5863 5865 5867 5869 5871 5873 5875 5877 5879 5881 5883 5885 5886 5888 5890 5891 5892 5893 5894 5895 5896 5896 5897 5897 5898 5898 5898 5897 5897 5896 5895 5894 5893 5892 5891 5890 5888 5886 5884 5883 5881 5880 5878 5877 5876 5876
5852 5856 5859 5861 5863 5866 5868 5870 5872 5874 5876 5878 5880 5882 5884 5886 5887 5889 5890 5891 5893 5894 5895 5895 5896 5896 5897 5897 5897 5897 5897 5896 5896 5895 5894 5894 5892 5891 5890 5888 5887 5885 5883 5882 5880 5879 5878 5877 5876
5851 5854 5857 5859 5861 5864 5868 5869 5870 5872 5874 5877 5879 5881 5883 5884 5886 5888 5889 5891 5892 5893 5894 5894 5895 5896 5896 5897 5897 5897 5896 5896 5896 5895 5894 5894 5893 5891 5890 5889 5887 5885 5884 5882 5881 5880 5878 5877 5877
5850 5852 5855 5858 5860 5862 5865 5867 5869 5870 5873 5875 5877 5879 5881 5883 5885 5886 5888 5890 5891 5892 5893 5893 5894 5895 5895 5896 5896 5896 5896 5896 5895 5895 5894 5894 5893 5891 5890 5889 5887 5886 5884 5883 5882 5880 5879 5878 5877
5849 5851 5853 5856 5858 5860 5863 5865 5867 5869 5871 5873 5876 5878 5880 5882 5883 5885 5887 5888 5890 5891 5892 5892 5893 5894 5894 5895 5895 5895 5896 5895 5895 5895 5894 5893 5892 5891 5890 5889 5888 5886 5885 5884 5882 5881 5879 5878 5877
5847 5850 5852 5855 5857 5859 5861 5863 5865 5867 5869 5872 5874 5876 5878 5880 5882 5884 5885 5887 5888 5889 5890 5891 5892 5893 5893 5894 5894 5894 5895 5895 5895 5894 5894 5893 5892 5891 5890 5889 5887 5886 5885 5884 5883 5881 5880 5879 5877
5846 5849 5851 5853 5855 5858 5859 5861 5864 5866 5868 5870 5872 5874 5876 5878 5880 5882 5883 5885 5886 5888 5889 5890 5891 5892 5892 5893 5893 5893 5894 5894 5894 5893 5893 5892 5891 5890 5890 5888 5887 5886 5885 5884 5883 5882 5880 5879 5878
5846 5848 5850 5852 5854 5856 5859 5860 5862 5864 5866 5868 5870 5872 5874 5875 5877 5880 5882 5883 5885 5886 5888 5889 5890 5890 5891 5891 5892 5892 5893 5893 5893 5893 5892 5891 5890 5890 5889 5888 5887 5886 5885 5884 5883 5881 5880 5879 5878
5845 5847 5849 5851 5854 5855 5858 5859 5861 5862 5864 5866 5868 5870 5872 5873 5875 5877 5879 5881 5883 5884 5886 5887 5888 5889 5889 5890 5891 5891 5892 5892 5892 5892 5891 5890 5889 5889 5888 5887 5886 5885 5884 5883 5882 5881 5880 5879 5878
5844 5847 5849 5851 5852 5855 5857 5858 5860 5861 5863 5865 5866 5868 5870 5871 5873 5875 5877 5879 5881 5883 5884 5885 5886 5887 5888 5889 5889 5890 5890 5890 5890 5890 5889 5889 5888 5888 5887 5886 5885 5884 5883 5882 5881 5880 5879 5878 5877
5844 5847 5848 5850 5851 5854 5856 5857 5858 5859 5861 5863 5865 5866 5868 5870 5872 5873 5875 5877 5879 5881 5882 5883 5884 5885 5886 5886 5887 5888 5888 5889 5888 5888 5888 5887 5887 5886 5885 5885 5884 5883 5882 5881 5880 5879 5878 5877 5876
5844 5847 5848 5849 5851 5853 5854 5855 5857 5858 5860 5861 5863 5865 5867 5868 5870 5872 5873 5875 5877 5879 5880 5881 5882 5883 5884 5884 5885 5886 5886 5887 5886 5886 5886 5886 5885 5885 5884 5883 5882 5881 5880 5879 5878 5877 5877 5876 5874
5844 5846 5848 5850 5851 5852 5853 5854 5856 5857 5859 5860 5861 5863 5865 5867 5868 5869 5871 5873 5875 5876 5878 5879 5880 5881 5882 5882 5883 5884 5884 5884 5884 5884 5884 5884 5883 5882 5882 5881 5880 5879 5878 5877 5877 5876 5875 5874 5872
5843 5845 5847 5848 5850 5852 5852 5853 5855 5856 5857 5859 5860 5861 5863 5864 5866 5867 5869 5871 5873 5874 5875 5876 5877 5878 5879 5880 5881 5881 5881 5882 5882 5882 5881 5881 5880 5880 5879 5878 5878 5877 5876 5875 5875 5874 5872 5871 5870
5844 5845 5846 5848 5849 5850 5852 5852 5854 5854 5856 5857 5858 5859 5861 5862 5863 5865 5867 5869 5870 5871 5873 5874 5875 5875 5876 5877 5878 5878 5879 5879 5879 5879 5878 5878 5877 5877 5876 5876 5875 5874 5873 5873 5872 5871 5870 5869 5867
5844 5845 5845 5847 5848 5849 5850 5853 5852 5853 5854 5855 5856 5858 5859 5860 5861 5863 5864 5866 5867 5869 5870 5871 5872 5872 5873 5874 5875 5875 5876 5876 5876 5875 5875 5874 5874 5874 5873 5872 5872 5871 5870 5870 5869 5868 5867 5866 5864
5842 5843 5844 5846 5847 5848 5849 5853 5850 5851 5852 5853 5854 5855 5856 5857 5859 5861 5862 5864 5865 5866 5867 5868 5869 5869 5870 5871 5872 5872 5872 5872 5872 5872 5871 5871 5870 5870 5869 5869 5868 5868 5867 5866 5865 5864 5863 5862 5861